TimeEDT,TemperatureF,Dew PointF,Humidity,Sea Level PressureIn,VisibilityMPH,Wind Direction,Wind SpeedMPH,Gust SpeedMPH,PrecipitationIn,Events,Conditions,WindDirDegrees,DateUTC
12:53 AM,77.0,72.0,84,29.80,10.0,Calm,Calm,-,N/A,,Clear,0,2011-10-11 04:53:00
1:53 AM,77.0,73.0,88,29.79,10.0,SE,4.6,-,N/A,,Scattered Clouds,140,2011-10-11 05:53:00
2:53 AM,77.0,73.0,88,29.78,10.0,Calm,Calm,-,0.00,Rain,Light Rain,0,2011-10-11 06:53:00
3:53 AM,75.9,73.0,91,29.77,10.0,Calm,Calm,-,0.00,,Scattered Clouds,0,2011-10-11 07:53:00
4:53 AM,75.9,73.0,91,29.78,10.0,SSE,4.6,-,N/A,,Scattered Clouds,150,2011-10-11 08:53:00
6:53 AM,75.0,73.0,94,29.80,10.0,SSE,3.5,-,N/A,,Clear,160,2011-10-11 10:53:00
7:53 AM,75.9,73.0,91,29.81,10.0,SSE,4.6,-,N/A,,Clear,150,2011-10-11 11:53:00
8:53 AM,80.1,73.9,81,29.83,10.0,South,5.8,-,N/A,,Partly Cloudy,180,2011-10-11 12:53:00
10:53 AM,82.9,72.0,69,29.85,10.0,SW,9.2,-,N/A,,Partly Cloudy,230,2011-10-11 14:53:00
12:01 PM,80.6,73.4,79,29.85,10.0,West,5.8,-,0.00,Rain,Light Rain,270,2011-10-11 16:01:00
12:53 PM,84.0,73.9,72,29.84,10.0,SW,6.9,-,0.00,,Mostly Cloudy,230,2011-10-11 16:53:00
1:53 PM,86.0,72.0,63,29.82,10.0,WSW,8.1,-,N/A,,Scattered Clouds,240,2011-10-11 17:53:00
2:53 PM,86.0,71.1,61,29.81,10.0,WSW,6.9,-,N/A,,Mostly Cloudy,250,2011-10-11 18:53:00
4:53 PM,86.0,71.1,61,29.79,10.0,WSW,9.2,-,N/A,,Partly Cloudy,240,2011-10-11 20:53:00
5:53 PM,84.9,71.1,63,29.80,10.0,WSW,8.1,-,N/A,,Partly Cloudy,250,2011-10-11 21:53:00
6:53 PM,82.0,72.0,71,29.81,10.0,SW,3.5,-,N/A,,Clear,220,2011-10-11 22:53:00
7:53 PM,81.0,72.0,74,29.82,10.0,SSW,4.6,-,N/A,,Partly Cloudy,210,2011-10-11 23:53:00
8:53 PM,80.1,72.0,76,29.84,10.0,SSW,3.5,-,N/A,,Clear,200,2011-10-12 00:53:00
9:53 PM,79.0,73.0,82,29.85,10.0,Calm,Calm,-,N/A,,Clear,0,2011-10-12 01:53:00
10:53 PM,78.1,73.9,87,29.86,10.0,SSE,3.5,-,N/A,,Clear,160,2011-10-12 02:53:00
11:53 PM,77.0,73.9,90,29.86,10.0,Calm,Calm,-,N/A,,Clear,0,2011-10-12 03:53:00